Miscellaneous Local Product
Issued by NWS Hastings, NE

Home | Current Version | Previous Version | Graphics & Text | Print | Product List | Glossary On
Versions: 1 2 3 4 5 6 7 8 9 10 11 12 13 14 15 16 17 18 19 20 21 22 23 24 25 26 27 28 29 30 31 32 33 34 35 36 37 38 39 40 41 42 43 44 45 46 47 48 49 50
000
AXUS43 KGID 310302
MISGRI

GID CWA HOURLY WEATHER ROUNDUP
NATIONAL WEATHER SERVICE HASTINGS NE
1000 PM CDT TUE AUG 30 2016

NOTE: "FAIR" INDICATES FEW OR NO CLOUDS BELOW 12,000 FEET WITH NO
SIGNIFICANT WEATHER AND/OR OBSTRUCTIONS TO VISIBILITY.

...SOUTH CENTRAL NEBRASKA...

CITY           SKY/WX    TMP DP  RH WIND       PRES   REMARKS
GRAND ISLAND   CLOUDY    70  68  93 E3        30.22R
HASTINGS       CLOUDY    70  68  93 E3        30.23R
KEARNEY        CLOUDY    70  66  88 SE5       30.22R
ORD            CLOUDY    71  65  81 SE3       30.21R
YORK           CLOUDY    68  68 100 CALM      30.21S
AURORA         CLOUDY    69  69 100 E3        30.22R
LEXINGTON      CLOUDY    71  64  80 E7        30.24R
HOLDREGE       CLOUDY    69  65  88 E6        30.23R
HEBRON         LGT RAIN  71  69  93 NE5       30.19R

...NEBRASKA PANHANDLE...

CITY           SKY/WX    TMP DP  RH WIND       PRES   REMARKS
CHADRON        CLEAR     72  54  53 S9        30.20R
ALLIANCE       CLOUDY    61  58  90 S7        30.25R
SCOTTSBLUFF    CLEAR     67  59  75 E7        30.25R
SIDNEY         PTCLDY    63  60  90 SE6       30.29R

...WESTERN AND NORTH CENTRAL NEBRASKA...

CITY           SKY/WX    TMP DP  RH WIND       PRES   REMARKS
VALENTINE      CLOUDY    71  63  75 SE6       30.21R
AINSWORTH      CLEAR     66  63  89 SE5       30.22R
ONEILL         PTCLDY    72  65  78 SE5       30.22R
BROKEN BOW     CLOUDY    63  63 100 CALM      30.24R
IMPERIAL       PTCLDY    65  62  90 SE7       30.25R
NORTH PLATTE   CLOUDY    66  64  93 E6        30.24R
MCCOOK         MOCLDY    69  66  90 E6        30.23R

...EASTERN NEBRASKA...

CITY           SKY/WX    TMP DP  RH WIND       PRES   REMARKS
NORFOLK        CLOUDY    70  66  87 CALM      30.20R
SO SIOUX CITY  CLOUDY    75  69  81 E8        30.18R
TEKAMAH        CLOUDY    71  69  93 CALM      30.17R
COLUMBUS       PTCLDY    70  61  73 CALM      30.21R
ALBION         MOCLDY    69  66  90 CALM      30.21R
OMAHA EPPLEY   CLOUDY    75  70  84 CALM      30.17R
OFFUTT AFB     MOCLDY    73  73 100 NE1       30.16R
MILLARD        CLOUDY   N/A N/A N/A CALM      30.17R
LINCOLN        LGT RAIN  73  70  90 N5        30.19R
NEBRASKA CITY  CLOUDY    72  72 100 N5        30.17R
BEATRICE       LGT RAIN  72  70  94 NE3       30.17S
FALLS CITY     CLOUDY    73  70  90 N5        30.14R

...NORTHERN KANSAS...

CITY           SKY/WX    TMP DP  RH WIND       PRES   REMARKS
GOODLAND       MOCLDY    63  58  83 S5        30.24S
HILL CITY      CLOUDY    70  66  87 SE7       30.21R
NORTON         CLEAR     68  63  83 CALM      30.20
SMITH CENTER   DRIZZLE   66  66 100 CALM      30.20S
BELOIT         MOCLDY    66  64  94 CALM      30.16F
HAYS           MOCLDY    68  61  77 NE7       30.20F
RUSSELL        LGT RAIN  69  68  96 N5        30.18S
CONCORDIA      CLOUDY    71  69  93 CALM      30.17F
SALINA         LGT RAIN  74  71  91 NW5       30.15F
TOPEKA         CLOUDY    77  72  84 N6        30.11S



USA.gov is the U.S. government's official web portal to all federal, state and local government web resources and services.